Retour au catalogue

FENGYUN 1C DEB

ActifSSO
NORAD 31269·DEBRIS·🇨🇳 China

Lancé May 10, 1999 depuis Taiyuan Satellite Launch Center

Loading…

Prochains Passages (prochaines 24 heures)

TLE

FraisSource: Space-Track

Époque: Sep 13, 2026, 21:28 UTC

1 31269U 99025BNB 26256.89482574  .00003408  00000-0  68101-3 0  9998
2 31269  98.1500 129.9958 0230778 154.7638 221.1790 14.46990017  4535

Suivez FENGYUN 1C DEB en temps réel avec AllMySat

Download on the App Store